Tracking 31027 objects as of 19-Jul-2025
HD Live streaming from Space Station
objects crossing your sky now

EXPLORER 11

Track EXPLORER 11 now!
10-day predictions
EXPLORER 11 is classified as:


NORAD ID: 107
Int'l Code: 1961-013A
Perigee: 470.1 km
Apogee: 1,195.7 km
Inclination: 28.8 °
Period: 101.4 minutes
Semi major axis: 7203 km
RCS: 0.4708 m2 (medium)
Launch date: April 27, 1961
Source: United States (US)
Launch site: AIR FORCE EASTERN TEST RANGE (AFETR)
Your satellite tracking list
STARLINK-3349
Track 1 satellite(s)




NASA's NSSDC Master Catalog

Two Line Element Set (TLE):
1 00107U 61013A   25199.32406170  .00001152  00000-0  12110-3 0  9995
2 00107  28.7899  78.3558 0503642 255.1461  99.2818 14.19871181228968
Source of the keplerian elements: AFSPC